Time,TemperatureF,DewpointF,PressureIn,WindDirection,WindDirectionDegrees,WindSpeedMPH,WindSpeedGustMPH,Humidity,HourlyPrecipIn,Conditions,Clouds,dailyrainin,SoftwareType,DateUTC
2013-02-10 00:05:00,68.1,66.0,29.82,SE,135,8.0,20.0,93,0.00,,SKC,0.01,VWS V14.01,2013-02-10 06:05:00,
2013-02-10 00:10:00,68.3,65.9,29.82,SE,140,4.0,16.0,92,0.00,,SKC,0.00,VWS V14.01,2013-02-10 06:10:00,
2013-02-10 00:15:00,68.4,66.0,29.82,SE,142,3.0,16.0,92,0.00,,SKC,0.00,VWS V14.01,2013-02-10 06:15:00,
2013-02-10 00:20:00,68.5,66.1,29.82,SSE,150,7.0,16.0,92,0.00,,SKC,0.00,VWS V14.01,2013-02-10 06:20:00,
2013-02-10 00:25:00,68.5,66.1,29.82,SE,143,4.0,16.0,92,0.00,,SKC,0.00,VWS V14.01,2013-02-10 06:25:00,
2013-02-10 00:30:00,68.5,66.1,29.82,SSE,148,3.0,16.0,92,0.00,,SKC,0.00,VWS V14.01,2013-02-10 06:30:00,
2013-02-10 00:35:00,68.6,65.9,29.82,South,171,4.0,11.0,91,0.00,,SKC,0.00,VWS V14.01,2013-02-10 06:35:00,
2013-02-10 00:40:00,68.6,65.9,29.82,SE,136,7.0,11.0,91,0.00,,SKC,0.00,VWS V14.01,2013-02-10 06:40:00,
2013-02-10 00:45:00,68.6,65.9,29.82,SSE,153,11.0,13.0,91,0.00,,SKC,0.00,VWS V14.01,2013-02-10 06:45:00,
2013-02-10 00:50:00,68.7,66.0,29.82,South,178,7.0,13.0,91,0.00,,SKC,0.00,VWS V14.01,2013-02-10 06:50:00,
2013-02-10 00:55:00,68.7,66.0,29.82,South,170,3.0,13.0,91,0.00,,SKC,0.00,VWS V14.01,2013-02-10 06:55:00,
2013-02-10 01:00:00,68.7,66.0,29.82,SSE,150,4.0,13.0,91,0.00,,SKC,0.00,VWS V14.01,2013-02-10 07:00:00,
2013-02-10 01:05:00,68.7,66.0,29.81,SSE,151,6.0,13.0,91,0.00,,SKC,0.00,VWS V14.01,2013-02-10 07:05:00,
2013-02-10 01:10:00,68.8,66.1,29.81,SSE,148,6.0,13.0,91,0.00,,SKC,0.00,VWS V14.01,2013-02-10 07:10:00,
2013-02-10 01:15:00,68.8,66.1,29.81,SSE,150,5.0,14.0,91,0.00,,SKC,0.00,VWS V14.01,2013-02-10 07:15:00,
2013-02-10 01:20:00,68.8,66.1,29.81,SSE,167,5.0,14.0,91,0.00,,SKC,0.00,VWS V14.01,2013-02-10 07:20:00,
2013-02-10 01:25:00,68.8,66.1,29.81,SSE,152,4.0,14.0,91,0.00,,SKC,0.00,VWS V14.01,2013-02-10 07:25:00,
2013-02-10 01:30:00,68.8,66.1,29.81,SSE,148,9.0,14.0,91,0.00,,SKC,0.00,VWS V14.01,2013-02-10 07:30:00,
2013-02-10 01:35:00,68.8,66.1,29.81,South,186,11.0,17.0,91,0.00,,SKC,0.00,VWS V14.01,2013-02-10 07:35:00,
2013-02-10 01:40:00,68.8,66.1,29.81,SSE,149,11.0,17.0,91,0.00,,SKC,0.00,VWS V14.01,2013-02-10 07:40:00,
2013-02-10 01:45:00,68.8,66.1,29.81,South,172,5.0,17.0,91,0.00,,SKC,0.00,VWS V14.01,2013-02-10 07:45:00,
2013-02-10 01:50:00,68.8,66.1,29.81,SSE,168,6.0,17.0,91,0.00,,SKC,0.00,VWS V14.01,2013-02-10 07:50:00,
2013-02-10 01:55:00,68.7,66.0,29.80,SE,144,5.0,17.0,91,0.00,,SKC,0.00,VWS V14.01,2013-02-10 07:55:00,
2013-02-10 02:00:00,68.6,65.9,29.81,South,169,6.0,17.0,91,0.00,,SKC,0.00,VWS V14.01,2013-02-10 08:00:00,
2013-02-10 02:05:00,68.5,66.1,29.81,SSE,159,5.0,13.0,92,0.00,,SKC,0.00,VWS V14.01,2013-02-10 08:05:00,
2013-02-10 02:10:00,68.4,66.0,29.80,South,189,3.0,13.0,92,0.00,,SKC,0.00,VWS V14.01,2013-02-10 08:10:00,
2013-02-10 02:15:00,68.3,65.9,29.80,South,181,4.0,13.0,92,0.00,,SKC,0.00,VWS V14.01,2013-02-10 08:15:00,
2013-02-10 02:20:00,68.2,65.8,29.82,SSW,202,2.0,13.0,92,0.00,,SKC,0.00,VWS V14.01,2013-02-10 08:20:00,
2013-02-10 02:25:00,68.2,65.8,29.81,SSW,198,6.0,13.0,92,0.00,,SKC,0.00,VWS V14.01,2013-02-10 08:25:00,
2013-02-10 02:30:00,68.1,66.0,29.80,SSW,194,4.0,13.0,93,0.00,,SKC,0.00,VWS V14.01,2013-02-10 08:30:00,
2013-02-10 02:35:00,68.1,66.0,29.82,SW,220,5.0,9.0,93,0.00,,SKC,0.00,VWS V14.01,2013-02-10 08:35:00,
2013-02-10 02:40:00,68.0,65.9,29.81,SW,218,4.0,9.0,93,0.01,,SKC,0.01,VWS V14.01,2013-02-10 08:40:00,
2013-02-10 02:45:00,67.9,65.8,29.81,SSW,209,3.0,10.0,93,0.01,,SKC,0.01,VWS V14.01,2013-02-10 08:45:00,
2013-02-10 02:50:00,67.9,65.8,29.81,SSW,197,4.0,10.0,93,0.01,,SKC,0.01,VWS V14.01,2013-02-10 08:50:00,
2013-02-10 02:55:00,67.9,65.8,29.81,SSW,197,3.0,10.0,93,0.01,,SKC,0.01,VWS V14.01,2013-02-10 08:55:00,
2013-02-10 03:00:00,67.8,65.7,29.80,SSW,197,1.0,10.0,93,0.01,,SKC,0.01,VWS V14.01,2013-02-10 09:00:00,
2013-02-10 03:05:00,67.8,65.7,29.81,SSW,195,2.0,4.0,93,0.01,,SKC,0.01,VWS V14.01,2013-02-10 09:05:00,
2013-02-10 03:10:00,67.8,66.0,29.80,SSW,192,3.0,5.0,94,0.01,,SKC,0.01,VWS V14.01,2013-02-10 09:10:00,
2013-02-10 03:15:00,67.8,66.0,29.80,South,182,3.0,6.0,94,0.01,,SKC,0.01,VWS V14.01,2013-02-10 09:15:00,
2013-02-10 03:20:00,67.7,65.9,29.80,South,181,0.0,6.0,94,0.01,,SKC,0.01,VWS V14.01,2013-02-10 09:20:00,
2013-02-10 03:25:00,67.7,65.9,29.80,South,180,2.0,6.0,94,0.01,,SKC,0.01,VWS V14.01,2013-02-10 09:25:00,
2013-02-10 03:30:00,67.7,65.9,29.80,South,177,5.0,6.0,94,0.01,,SKC,0.01,VWS V14.01,2013-02-10 09:30:00,
2013-02-10 03:35:00,67.7,65.9,29.81,South,171,4.0,6.0,94,0.01,,SKC,0.01,VWS V14.01,2013-02-10 09:35:00,
2013-02-10 03:40:00,67.7,65.9,29.80,South,172,0.0,6.0,94,0.01,,SKC,0.01,VWS V14.01,2013-02-10 09:40:00,
2013-02-10 03:45:00,67.7,65.9,29.80,South,172,0.0,6.0,94,0.01,,SKC,0.01,VWS V14.01,2013-02-10 09:45:00,
2013-02-10 03:50:00,67.6,65.8,29.81,South,174,2.0,6.0,94,0.01,,SKC,0.01,VWS V14.01,2013-02-10 09:50:00,
2013-02-10 03:55:00,67.6,65.8,29.81,South,174,0.0,6.0,94,0.01,,SKC,0.01,VWS V14.01,2013-02-10 09:55:00,
2013-02-10 04:00:00,67.6,65.8,29.81,South,174,0.0,6.0,94,0.01,,SKC,0.01,VWS V14.01,2013-02-10 10:00:00,
2013-02-10 04:05:00,67.6,65.8,29.81,South,174,0.0,0.0,94,0.00,,SKC,0.01,VWS V14.01,2013-02-10 10:05:00,
2013-02-10 04:10:00,67.6,65.8,29.81,South,174,0.0,0.0,94,0.00,,SKC,0.01,VWS V14.01,2013-02-10 10:10:00,
2013-02-10 04:15:00,67.6,66.1,29.81,South,174,1.0,1.0,95,0.00,,SKC,0.01,VWS V14.01,2013-02-10 10:15:00,
2013-02-10 04:20:00,67.5,66.0,29.80,South,174,4.0,4.0,95,0.00,,SKC,0.01,VWS V14.01,2013-02-10 10:20:00,
2013-02-10 04:25:00,67.5,66.0,29.80,South,174,0.0,5.0,95,0.00,,SKC,0.01,VWS V14.01,2013-02-10 10:25:00,
2013-02-10 04:30:00,67.5,66.0,29.81,South,174,0.0,5.0,95,0.00,,SKC,0.01,VWS V14.01,2013-02-10 10:30:00,
2013-02-10 04:35:00,67.4,65.9,29.80,South,174,5.0,5.0,95,0.00,,SKC,0.01,VWS V14.01,2013-02-10 10:35:00,
2013-02-10 04:40:00,67.4,65.9,29.78,SSE,150,5.0,10.0,95,0.00,,SKC,0.01,VWS V14.01,2013-02-10 10:40:00,
2013-02-10 04:45:00,67.4,65.9,29.80,SSE,148,6.0,11.0,95,0.00,,SKC,0.01,VWS V14.01,2013-02-10 10:45:00,
2013-02-10 04:50:00,67.4,65.9,29.79,SSE,148,4.0,11.0,95,0.00,,SKC,0.01,VWS V14.01,2013-02-10 10:50:00,
2013-02-10 04:55:00,67.4,65.9,29.78,SE,146,0.0,11.0,95,0.00,,SKC,0.01,VWS V14.01,2013-02-10 10:55:00,
2013-02-10 05:00:00,67.4,65.9,29.80,SE,146,2.0,11.0,95,0.00,,SKC,0.01,VWS V14.01,2013-02-10 11:00:00,
2013-02-10 05:05:00,67.4,65.9,29.79,SE,146,6.0,6.0,95,0.00,,SKC,0.01,VWS V14.01,2013-02-10 11:05:00,
2013-02-10 05:10:00,67.4,65.9,29.80,SE,146,3.0,6.0,95,0.00,,SKC,0.01,VWS V14.01,2013-02-10 11:10:00,
2013-02-10 05:15:00,67.4,65.9,29.80,SE,146,0.0,6.0,95,0.00,,SKC,0.01,VWS V14.01,2013-02-10 11:15:00,
2013-02-10 05:20:00,67.3,65.8,29.80,SE,146,0.0,6.0,95,0.00,,SKC,0.01,VWS V14.01,2013-02-10 11:20:00,
2013-02-10 05:25:00,67.3,65.8,29.80,SE,146,0.0,6.0,95,0.00,,SKC,0.01,VWS V14.01,2013-02-10 11:25:00,
2013-02-10 05:30:00,67.3,65.8,29.80,SE,146,0.0,6.0,95,0.00,,SKC,0.01,VWS V14.01,2013-02-10 11:30:00,
2013-02-10 05:35:00,67.3,65.8,29.81,SE,146,0.0,0.0,95,0.00,,SKC,0.01,VWS V14.01,2013-02-10 11:35:00,
2013-02-10 05:40:00,67.3,65.8,29.81,SE,146,0.0,1.0,95,0.00,,SKC,0.01,VWS V14.01,2013-02-10 11:40:00,
2013-02-10 05:45:00,67.3,65.8,29.82,SE,146,0.0,4.0,95,0.00,,SKC,0.01,VWS V14.01,2013-02-10 11:45:00,
2013-02-10 05:50:00,67.3,65.8,29.82,SE,146,0.0,4.0,95,0.00,,SKC,0.01,VWS V14.01,2013-02-10 11:50:00,
2013-02-10 05:55:00,67.3,65.8,29.82,SE,146,0.0,4.0,95,0.00,,SKC,0.01,VWS V14.01,2013-02-10 11:55:00,
2013-02-10 06:00:00,67.3,65.8,29.82,SE,146,0.0,4.0,95,0.00,,SKC,0.01,VWS V14.01,2013-02-10 12:00:00,
2013-02-10 06:05:00,67.3,65.8,29.82,SE,146,0.0,0.0,95,0.00,,SKC,0.01,VWS V14.01,2013-02-10 12:05:00,
2013-02-10 06:10:00,67.2,65.7,29.82,SE,146,0.0,1.0,95,0.00,,SKC,0.01,VWS V14.01,2013-02-10 12:10:00,
2013-02-10 06:15:00,67.2,65.7,29.83,SE,146,0.0,1.0,95,0.01,,SKC,0.02,VWS V14.01,2013-02-10 12:15:00,
2013-02-10 06:20:00,67.2,65.7,29.83,SE,146,0.0,1.0,95,0.01,,SKC,0.02,VWS V14.01,2013-02-10 12:20:00,
2013-02-10 06:25:00,67.1,65.6,29.83,SE,146,0.0,1.0,95,0.01,,SKC,0.02,VWS V14.01,2013-02-10 12:25:00,
2013-02-10 06:30:00,67.0,65.5,29.83,SE,146,0.0,1.0,95,0.01,,SKC,0.02,VWS V14.01,2013-02-10 12:30:00,
2013-02-10 06:35:00,67.0,65.5,29.83,SE,146,0.0,0.0,95,0.01,,SKC,0.02,VWS V14.01,2013-02-10 12:35:00,
2013-02-10 06:40:00,67.0,65.5,29.83,SE,146,0.0,0.0,95,0.01,,SKC,0.02,VWS V14.01,2013-02-10 12:40:00,
2013-02-10 06:45:00,66.9,65.4,29.83,SE,146,0.0,0.0,95,0.01,,SKC,0.02,VWS V14.01,2013-02-10 12:45:00,
2013-02-10 06:50:00,66.8,65.3,29.84,SE,146,0.0,0.0,95,0.01,,SKC,0.02,VWS V14.01,2013-02-10 12:50:00,
2013-02-10 06:55:00,66.8,65.3,29.84,SE,146,0.0,0.0,95,0.01,,SKC,0.02,VWS V14.01,2013-02-10 12:55:00,
2013-02-10 07:00:00,66.2,64.4,29.85,NW,323,4.0,16.0,94,0.01,,SKC,0.02,VWS V14.01,2013-02-10 13:00:00,
2013-02-10 07:05:00,62.6,59.6,29.86,NW,325,9.0,15.0,90,0.01,,SKC,0.02,VWS V14.01,2013-02-10 13:05:00,
2013-02-10 07:10:00,60.8,58.2,29.86,NW,323,10.0,15.0,91,0.01,,SKC,0.02,VWS V14.01,2013-02-10 13:10:00,
2013-02-10 07:15:00,59.9,57.0,29.86,NNW,327,4.0,15.0,90,0.01,,SKC,0.02,VWS V14.01,2013-02-10 13:15:00,
2013-02-10 07:20:00,59.3,55.8,29.87,NW,310,6.0,15.0,88,0.01,,SKC,0.02,VWS V14.01,2013-02-10 13:20:00,
2013-02-10 07:25:00,58.7,53.6,29.87,NNW,340,4.0,15.0,83,0.01,,SKC,0.02,VWS V14.01,2013-02-10 13:25:00,
2013-02-10 07:30:00,58.6,51.8,29.88,North,5,9.0,15.0,78,0.01,,SKC,0.02,VWS V14.01,2013-02-10 13:30:00,
2013-02-10 07:35:00,58.5,50.6,29.88,NNW,337,7.0,13.0,75,0.00,,SKC,0.02,VWS V14.01,2013-02-10 13:35:00,
2013-02-10 07:40:00,58.4,50.5,29.88,NNW,327,5.0,13.0,75,0.00,,SKC,0.02,VWS V14.01,2013-02-10 13:40:00,
2013-02-10 07:45:00,58.2,49.6,29.88,NNW,346,5.0,13.0,73,0.00,,SKC,0.02,VWS V14.01,2013-02-10 13:45:00,
2013-02-10 07:50:00,58.1,49.1,29.89,NNW,329,6.0,13.0,72,0.00,,SKC,0.02,VWS V14.01,2013-02-10 13:50:00,
2013-02-10 07:55:00,58.1,49.1,29.90,North,355,5.0,13.0,72,0.00,,SKC,0.02,VWS V14.01,2013-02-10 13:55:00,
2013-02-10 08:00:00,58.0,47.5,29.89,NW,322,16.0,16.0,68,0.00,,SKC,0.02,VWS V14.01,2013-02-10 14:00:00,
2013-02-10 08:05:00,58.1,46.4,29.88,North,355,5.0,13.0,65,0.00,,SKC,0.02,VWS V14.01,2013-02-10 14:05:00,
2013-02-10 08:10:00,58.1,46.0,29.88,NNW,330,10.0,13.0,64,0.00,,SKC,0.02,VWS V14.01,2013-02-10 14:10:00,
2013-02-10 08:15:00,58.1,44.7,29.88,NNW,333,2.0,13.0,61,0.00,,SKC,0.02,VWS V14.01,2013-02-10 14:15:00,
2013-02-10 08:20:00,58.2,43.5,29.90,NW,317,5.0,13.0,58,0.00,,SKC,0.02,VWS V14.01,2013-02-10 14:20:00,
2013-02-10 08:25:00,58.3,43.2,29.90,NNW,329,5.0,13.0,57,0.00,,SKC,0.02,VWS V14.01,2013-02-10 14:25:00,
2013-02-10 08:30:00,58.4,42.3,29.89,North,355,10.0,13.0,55,0.00,,SKC,0.02,VWS V14.01,2013-02-10 14:30:00,
2013-02-10 08:35:00,58.5,41.9,29.89,North,355,2.0,11.0,54,0.00,,SKC,0.02,VWS V14.01,2013-02-10 14:35:00,
2013-02-10 08:40:00,58.5,41.5,29.90,NW,320,4.0,15.0,53,0.00,,SKC,0.02,VWS V14.01,2013-02-10 14:40:00,
2013-02-10 08:45:00,58.6,41.0,29.91,NW,317,5.0,15.0,52,0.00,,SKC,0.02,VWS V14.01,2013-02-10 14:45:00,
2013-02-10 08:50:00,58.6,40.0,29.91,North,355,12.0,15.0,50,0.00,,SKC,0.02,VWS V14.01,2013-02-10 14:50:00,
2013-02-10 08:55:00,58.7,39.6,29.91,NW,320,4.0,15.0,49,0.00,,SKC,0.02,VWS V14.01,2013-02-10 14:55:00,
2013-02-10 09:00:00,58.8,39.2,29.91,NW,325,5.0,15.0,48,0.00,,SKC,0.02,VWS V14.01,2013-02-10 15:00:00,
2013-02-10 09:05:00,59.0,39.4,29.92,North,351,6.0,12.0,48,0.00,,SKC,0.02,VWS V14.01,2013-02-10 15:05:00,
2013-02-10 09:10:00,59.2,40.1,29.92,NNW,328,7.0,12.0,49,0.00,,SKC,0.02,VWS V14.01,2013-02-10 15:10:00,
2013-02-10 09:15:00,59.4,39.7,29.93,North,350,2.0,12.0,48,0.00,,SKC,0.02,VWS V14.01,2013-02-10 15:15:00,
2013-02-10 09:20:00,59.5,38.7,29.92,NW,321,17.0,17.0,46,0.00,,SKC,0.02,VWS V14.01,2013-02-10 15:20:00,
2013-02-10 09:25:00,59.7,37.8,29.92,North,9,13.0,17.0,44,0.00,,SKC,0.02,VWS V14.01,2013-02-10 15:25:00,
2013-02-10 09:30:00,59.8,37.9,29.93,NW,313,5.0,17.0,44,0.00,,SKC,0.02,VWS V14.01,2013-02-10 15:30:00,
2013-02-10 09:35:00,59.9,38.5,29.93,North,355,10.0,11.0,45,0.00,,SKC,0.02,VWS V14.01,2013-02-10 15:35:00,
2013-02-10 09:40:00,60.0,38.0,29.93,NNW,336,3.0,14.0,44,0.00,,SKC,0.02,VWS V14.01,2013-02-10 15:40:00,
2013-02-10 09:44:00,60.1,37.5,29.93,NW,313,11.0,14.0,43,0.00,,SKC,0.02,VWS V14.01,2013-02-10 15:44:00,
2013-02-10 09:49:00,60.3,37.7,29.94,NNW,348,5.0,15.0,43,0.00,,SKC,0.02,VWS V14.01,2013-02-10 15:49:00,
2013-02-10 09:55:00,60.5,37.3,29.93,North,355,11.0,15.0,42,0.00,,SKC,0.02,VWS V14.01,2013-02-10 15:55:00,
2013-02-10 10:00:00,60.7,36.9,29.93,NNW,331,3.0,15.0,41,0.00,,SKC,0.02,VWS V14.01,2013-02-10 16:00:00,
2013-02-10 10:05:00,60.9,37.7,29.93,NNW,327,9.0,10.0,42,0.00,,SKC,0.02,VWS V14.01,2013-02-10 16:05:00,
2013-02-10 10:10:00,60.9,37.7,29.93,NNE,19,9.0,10.0,42,0.00,,SKC,0.02,VWS V14.01,2013-02-10 16:10:00,
2013-02-10 10:14:00,61.0,35.9,29.93,North,355,10.0,18.0,39,0.00,,SKC,0.02,VWS V14.01,2013-02-10 16:14:00,
2013-02-10 10:19:00,61.1,36.6,29.94,NNW,336,6.0,18.0,40,0.00,,SKC,0.02,VWS V14.01,2013-02-10 16:19:00,
2013-02-10 10:24:00,61.2,36.7,29.94,NE,34,7.0,18.0,40,0.00,,SKC,0.02,VWS V14.01,2013-02-10 16:24:00,
2013-02-10 10:29:00,61.3,34.8,29.94,North,355,12.0,18.0,37,0.00,,SKC,0.02,VWS V14.01,2013-02-10 16:29:00,
2013-02-10 10:34:00,61.4,35.6,29.94,North,360,1.0,10.0,38,0.00,,SKC,0.02,VWS V14.01,2013-02-10 16:34:00,
2013-02-10 10:39:00,61.6,35.1,29.95,NNW,331,5.0,11.0,37,0.00,,SKC,0.02,VWS V14.01,2013-02-10 16:39:00,
2013-02-10 10:44:00,61.9,34.0,29.95,NNE,16,8.0,11.0,35,0.00,,SKC,0.02,VWS V14.01,2013-02-10 16:44:00,
2013-02-10 10:49:00,62.1,34.2,29.94,NW,309,8.0,12.0,35,0.00,,SKC,0.02,VWS V14.01,2013-02-10 16:49:00,
2013-02-10 10:54:00,62.2,34.2,29.95,North,5,6.0,12.0,35,0.00,,SKC,0.02,VWS V14.01,2013-02-10 16:54:00,
2013-02-10 10:59:00,62.4,34.4,29.95,NW,322,9.0,13.0,35,0.00,,SKC,0.02,VWS V14.01,2013-02-10 16:59:00,
2013-02-10 11:04:00,62.5,34.5,29.95,NNW,329,7.0,10.0,35,0.00,,SKC,0.02,VWS V14.01,2013-02-10 17:04:00,
2013-02-10 11:09:00,62.6,34.6,29.95,NW,321,3.0,11.0,35,0.00,,SKC,0.02,VWS V14.01,2013-02-10 17:09:00,
2013-02-10 11:14:00,62.7,34.0,29.95,NW,319,7.0,13.0,34,0.00,,SKC,0.02,VWS V14.01,2013-02-10 17:14:00,
2013-02-10 11:19:00,62.9,33.4,29.96,NNW,327,6.0,16.0,33,0.00,,SKC,0.02,VWS V14.01,2013-02-10 17:19:00,
2013-02-10 11:24:00,62.9,34.1,29.95,NNW,345,5.0,16.0,34,0.00,,SKC,0.02,VWS V14.01,2013-02-10 17:24:00,
2013-02-10 11:29:00,63.0,34.2,29.95,NNW,346,6.0,16.0,34,0.00,,SKC,0.02,VWS V14.01,2013-02-10 17:29:00,
2013-02-10 11:34:00,63.1,34.3,29.95,North,351,10.0,12.0,34,0.00,,SKC,0.02,VWS V14.01,2013-02-10 17:34:00,
2013-02-10 11:39:00,63.2,32.9,29.94,NNW,339,15.0,15.0,32,0.00,,SKC,0.02,VWS V14.01,2013-02-10 17:39:00,
2013-02-10 11:44:00,63.4,33.8,29.95,NNW,341,4.0,15.0,33,0.00,,SKC,0.02,VWS V14.01,2013-02-10 17:44:00,
2013-02-10 11:49:00,63.6,33.2,29.95,North,5,3.0,15.0,32,0.00,,SKC,0.02,VWS V14.01,2013-02-10 17:49:00,
2013-02-10 11:54:00,63.8,32.6,29.95,North,355,4.0,15.0,31,0.00,,SKC,0.02,VWS V14.01,2013-02-10 17:54:00,
2013-02-10 11:59:00,64.0,32.8,29.95,NNW,343,13.0,15.0,31,0.00,,SKC,0.02,VWS V14.01,2013-02-10 17:59:00,
2013-02-10 12:04:00,64.3,31.4,29.95,North,355,6.0,11.0,29,0.00,,SKC,0.02,VWS V14.01,2013-02-10 18:04:00,
2013-02-10 12:09:00,64.5,31.6,29.95,North,5,7.0,16.0,29,0.00,,SKC,0.02,VWS V14.01,2013-02-10 18:09:00,
2013-02-10 12:14:00,64.8,31.8,29.94,NW,317,6.0,16.0,29,0.00,,SKC,0.02,VWS V14.01,2013-02-10 18:14:00,
2013-02-10 12:19:00,65.2,32.2,29.94,North,355,9.0,16.0,29,0.00,,SKC,0.02,VWS V14.01,2013-02-10 18:19:00,
2013-02-10 12:24:00,65.4,30.6,29.94,NW,317,9.0,18.0,27,0.00,,SKC,0.02,VWS V14.01,2013-02-10 18:24:00,
2013-02-10 12:29:00,65.5,30.7,29.94,NNW,348,6.0,18.0,27,0.00,,SKC,0.02,VWS V14.01,2013-02-10 18:29:00,
2013-02-10 12:34:00,65.6,31.6,29.93,North,351,11.0,15.0,28,0.00,,SKC,0.02,VWS V14.01,2013-02-10 18:34:00,
2013-02-10 12:39:00,66.0,32.0,29.93,NNE,22,5.0,16.0,28,0.00,,SKC,0.02,VWS V14.01,2013-02-10 18:39:00,
2013-02-10 12:44:00,66.3,31.4,29.93,NNE,23,3.0,16.0,27,0.00,,SKC,0.02,VWS V14.01,2013-02-10 18:44:00,
2013-02-10 12:49:00,66.9,32.8,29.93,NNE,21,2.0,16.0,28,0.00,,SKC,0.02,VWS V14.01,2013-02-10 18:49:00,
2013-02-10 12:54:00,67.3,33.1,29.92,NNE,24,10.0,16.0,28,0.00,,SKC,0.02,VWS V14.01,2013-02-10 18:54:00,
2013-02-10 12:59:00,67.4,32.3,29.91,North,360,6.0,16.0,27,0.00,,SKC,0.02,VWS V14.01,2013-02-10 18:59:00,
2013-02-10 13:04:00,67.5,33.3,29.92,NNW,332,4.0,14.0,28,0.00,,SKC,0.02,VWS V14.01,2013-02-10 19:04:00,
2013-02-10 13:09:00,67.9,32.7,29.92,NNW,348,8.0,14.0,27,0.00,,SKC,0.02,VWS V14.01,2013-02-10 19:09:00,
2013-02-10 13:14:00,68.1,33.8,29.92,NE,37,4.0,14.0,28,0.00,,SKC,0.02,VWS V14.01,2013-02-10 19:14:00,
2013-02-10 13:19:00,68.3,34.0,29.91,North,11,0.0,14.0,28,0.00,,SKC,0.02,VWS V14.01,2013-02-10 19:19:00,
2013-02-10 13:24:00,68.5,33.2,29.91,NE,43,3.0,14.0,27,0.00,,SKC,0.02,VWS V14.01,2013-02-10 19:24:00,
2013-02-10 13:29:00,68.2,33.0,29.92,North,5,3.0,14.0,27,0.00,,SKC,0.02,VWS V14.01,2013-02-10 19:29:00,
2013-02-10 13:34:00,67.9,33.6,29.92,NNW,347,7.0,11.0,28,0.00,,SKC,0.02,VWS V14.01,2013-02-10 19:34:00,
2013-02-10 13:39:00,67.6,33.4,29.91,NNW,344,4.0,11.0,28,0.00,,SKC,0.02,VWS V14.01,2013-02-10 19:39:00,
2013-02-10 13:44:00,67.6,33.4,29.91,NNE,19,3.0,11.0,28,0.00,,SKC,0.02,VWS V14.01,2013-02-10 19:44:00,
2013-02-10 13:49:00,67.4,33.2,29.91,NNE,19,5.0,13.0,28,0.00,,SKC,0.02,VWS V14.01,2013-02-10 19:49:00,
2013-02-10 13:54:00,67.3,33.1,29.90,NNE,24,5.0,13.0,28,0.00,,SKC,0.02,VWS V14.01,2013-02-10 19:54:00,
2013-02-10 13:59:00,67.3,34.0,29.90,North,11,1.0,13.0,29,0.00,,SKC,0.02,VWS V14.01,2013-02-10 19:59:00,
2013-02-10 14:04:00,67.4,34.1,29.90,North,5,2.0,7.0,29,0.00,,SKC,0.02,VWS V14.01,2013-02-10 20:04:00,
2013-02-10 14:09:00,67.5,33.3,29.89,North,355,2.0,12.0,28,0.00,,SKC,0.02,VWS V14.01,2013-02-10 20:09:00,
2013-02-10 14:14:00,67.6,34.2,29.90,NNW,340,7.0,12.0,29,0.00,,SKC,0.02,VWS V14.01,2013-02-10 20:14:00,
2013-02-10 14:19:00,67.6,33.4,29.90,North,5,6.0,12.0,28,0.00,,SKC,0.02,VWS V14.01,2013-02-10 20:19:00,
2013-02-10 14:24:00,67.6,34.2,29.90,NNW,338,1.0,12.0,29,0.00,,SKC,0.02,VWS V14.01,2013-02-10 20:24:00,
2013-02-10 14:29:00,67.7,33.5,29.89,North,5,2.0,12.0,28,0.00,,SKC,0.02,VWS V14.01,2013-02-10 20:29:00,
2013-02-10 14:34:00,67.8,33.5,29.90,NNE,26,5.0,7.0,28,0.00,,SKC,0.02,VWS V14.01,2013-02-10 20:34:00,
2013-02-10 14:39:00,67.7,34.3,29.89,North,355,0.0,9.0,29,0.00,,SKC,0.02,VWS V14.01,2013-02-10 20:39:00,
2013-02-10 14:44:00,67.8,33.5,29.90,NE,38,6.0,9.0,28,0.00,,SKC,0.02,VWS V14.01,2013-02-10 20:44:00,
2013-02-10 14:49:00,67.7,34.3,29.89,North,355,3.0,9.0,29,0.00,,SKC,0.02,VWS V14.01,2013-02-10 20:49:00,
2013-02-10 14:54:00,67.6,33.4,29.89,North,5,1.0,9.0,28,0.00,,SKC,0.02,VWS V14.01,2013-02-10 20:54:00,
2013-02-10 14:59:00,67.6,34.2,29.89,North,9,3.0,9.0,29,0.00,,SKC,0.02,VWS V14.01,2013-02-10 20:59:00,
2013-02-10 15:04:00,67.5,33.3,29.89,NNW,338,6.0,9.0,28,0.00,,SKC,0.02,VWS V14.01,2013-02-10 21:04:00,
2013-02-10 15:09:00,67.4,33.2,29.89,North,350,6.0,10.0,28,0.00,,SKC,0.02,VWS V14.01,2013-02-10 21:09:00,
2013-02-10 15:14:00,67.3,34.0,29.89,North,355,0.0,10.0,29,0.00,,SKC,0.02,VWS V14.01,2013-02-10 21:14:00,
2013-02-10 15:19:00,67.4,34.1,29.89,North,9,1.0,10.0,29,0.00,,SKC,0.02,VWS V14.01,2013-02-10 21:19:00,
2013-02-10 15:24:00,67.4,34.1,29.89,NE,42,1.0,10.0,29,0.00,,SKC,0.02,VWS V14.01,2013-02-10 21:24:00,
2013-02-10 15:29:00,67.4,34.1,29.88,North,11,2.0,10.0,29,0.00,,SKC,0.02,VWS V14.01,2013-02-10 21:29:00,
2013-02-10 15:34:00,67.3,34.8,29.89,NNE,18,0.0,5.0,30,0.00,,SKC,0.02,VWS V14.01,2013-02-10 21:34:00,
2013-02-10 15:39:00,67.3,34.0,29.89,NNE,15,0.0,5.0,29,0.00,,SKC,0.02,VWS V14.01,2013-02-10 21:39:00,
2013-02-10 15:44:00,67.4,34.1,29.89,NNE,30,4.0,7.0,29,0.00,,SKC,0.02,VWS V14.01,2013-02-10 21:44:00,
2013-02-10 15:49:00,67.4,34.1,29.89,NNE,26,2.0,12.0,29,0.00,,SKC,0.02,VWS V14.01,2013-02-10 21:49:00,
2013-02-10 15:54:00,67.4,34.1,29.89,NNE,21,3.0,12.0,29,0.00,,SKC,0.02,VWS V14.01,2013-02-10 21:54:00,
2013-02-10 15:59:00,67.5,34.2,29.89,NE,36,0.0,12.0,29,0.00,,SKC,0.02,VWS V14.01,2013-02-10 21:59:00,
2013-02-10 16:04:00,67.6,33.4,29.89,NNE,17,5.0,7.0,28,0.00,,SKC,0.02,VWS V14.01,2013-02-10 22:04:00,
2013-02-10 16:09:00,67.6,34.2,29.90,North,5,3.0,7.0,29,0.00,,SKC,0.02,VWS V14.01,2013-02-10 22:09:00,
2013-02-10 16:14:00,67.6,34.2,29.89,NE,34,2.0,7.0,29,0.00,,SKC,0.02,VWS V14.01,2013-02-10 22:14:00,
2013-02-10 16:19:00,67.5,34.2,29.89,NNE,15,4.0,8.0,29,0.00,,SKC,0.02,VWS V14.01,2013-02-10 22:19:00,
2013-02-10 16:24:00,67.5,34.2,29.89,North,355,5.0,9.0,29,0.00,,SKC,0.02,VWS V14.01,2013-02-10 22:24:00,
2013-02-10 16:29:00,67.5,35.8,29.89,NNE,24,1.0,9.0,31,0.00,,SKC,0.02,VWS V14.01,2013-02-10 22:29:00,
2013-02-10 16:34:00,67.5,35.8,29.89,NE,51,6.0,9.0,31,0.00,,SKC,0.02,VWS V14.01,2013-02-10 22:34:00,
2013-02-10 16:39:00,67.4,35.7,29.89,NE,55,5.0,9.0,31,0.00,,SKC,0.02,VWS V14.01,2013-02-10 22:39:00,
2013-02-10 16:44:00,67.4,36.5,29.89,NNE,19,1.0,9.0,32,0.00,,SKC,0.02,VWS V14.01,2013-02-10 22:44:00,
2013-02-10 16:49:00,67.4,36.5,29.89,NNE,17,1.0,9.0,32,0.00,,SKC,0.02,VWS V14.01,2013-02-10 22:49:00,
2013-02-10 16:54:00,67.3,34.8,29.89,NNE,18,0.0,9.0,30,0.00,,SKC,0.02,VWS V14.01,2013-02-10 22:54:00,
2013-02-10 16:59:00,67.2,35.6,29.89,NNE,14,0.0,9.0,31,0.00,,SKC,0.02,VWS V14.01,2013-02-10 22:59:00,
2013-02-10 17:04:00,67.2,37.2,29.90,North,5,0.0,3.0,33,0.00,,SKC,0.02,VWS V14.01,2013-02-10 23:04:00,
2013-02-10 17:09:00,67.1,35.5,29.90,North,5,0.0,5.0,31,0.00,,SKC,0.02,VWS V14.01,2013-02-10 23:09:00,
2013-02-10 17:14:00,67.0,34.6,29.91,North,5,1.0,5.0,30,0.00,,SKC,0.02,VWS V14.01,2013-02-10 23:14:00,
2013-02-10 17:19:00,66.9,35.3,29.91,North,5,1.0,5.0,31,0.00,,SKC,0.02,VWS V14.01,2013-02-10 23:19:00,
2013-02-10 17:24:00,66.9,35.3,29.91,NE,35,3.0,6.0,31,0.00,,SKC,0.02,VWS V14.01,2013-02-10 23:24:00,
2013-02-10 17:29:00,66.8,36.0,29.91,NE,34,2.0,6.0,32,0.00,,SKC,0.02,VWS V14.01,2013-02-10 23:29:00,
2013-02-10 17:34:00,66.7,35.9,29.91,NE,44,3.0,5.0,32,0.00,,SKC,0.02,VWS V14.01,2013-02-10 23:34:00,
2013-02-10 17:39:00,66.5,35.8,29.91,NE,42,0.0,6.0,32,0.00,,SKC,0.02,VWS V14.01,2013-02-10 23:39:00,
2013-02-10 17:44:00,66.2,35.5,29.91,ENE,61,0.0,7.0,32,0.00,,SKC,0.02,VWS V14.01,2013-02-10 23:44:00,
2013-02-10 17:49:00,66.0,35.3,29.91,NE,54,2.0,7.0,32,0.00,,SKC,0.02,VWS V14.01,2013-02-10 23:49:00,
2013-02-10 17:54:00,65.7,35.1,29.91,NNE,32,1.0,7.0,32,0.00,,SKC,0.02,VWS V14.01,2013-02-10 23:54:00,
2013-02-10 17:59:00,65.6,35.0,29.92,NNE,31,0.0,7.0,32,0.00,,SKC,0.02,VWS V14.01,2013-02-10 23:59:00,
2013-02-10 18:04:00,65.4,34.8,29.91,NE,36,1.0,5.0,32,0.00,,SKC,0.02,VWS V14.01,2013-02-11 00:04:00,
2013-02-10 18:09:00,65.2,34.6,29.93,NE,35,1.0,5.0,32,0.00,,SKC,0.02,VWS V14.01,2013-02-11 00:09:00,
2013-02-10 18:14:00,65.0,35.2,29.93,NE,36,0.0,5.0,33,0.00,,SKC,0.02,VWS V14.01,2013-02-11 00:14:00,
2013-02-10 18:19:00,64.9,35.1,29.92,NE,36,0.0,5.0,33,0.00,,SKC,0.02,VWS V14.01,2013-02-11 00:19:00,
2013-02-10 18:24:00,64.7,35.0,29.92,NE,36,0.0,5.0,33,0.00,,SKC,0.02,VWS V14.01,2013-02-11 00:24:00,
2013-02-10 18:29:00,64.5,34.8,29.92,NE,36,2.0,5.0,33,0.00,,SKC,0.02,VWS V14.01,2013-02-11 00:29:00,
2013-02-10 18:34:00,64.4,34.7,29.92,NE,38,0.0,3.0,33,0.00,,SKC,0.02,VWS V14.01,2013-02-11 00:34:00,
2013-02-10 18:39:00,64.2,35.3,29.93,NE,38,0.0,3.0,34,0.00,,SKC,0.02,VWS V14.01,2013-02-11 00:39:00,
2013-02-10 18:44:00,64.0,35.1,29.93,NE,38,0.0,4.0,34,0.00,,SKC,0.02,VWS V14.01,2013-02-11 00:44:00,
2013-02-10 18:49:00,63.9,35.7,29.93,NE,38,1.0,4.0,35,0.00,,SKC,0.02,VWS V14.01,2013-02-11 00:49:00,
2013-02-10 18:54:00,63.8,36.4,29.92,NE,38,0.0,4.0,36,0.00,,SKC,0.02,VWS V14.01,2013-02-11 00:54:00,
2013-02-10 18:59:00,63.6,35.5,29.92,NE,38,0.0,4.0,35,0.00,,SKC,0.02,VWS V14.01,2013-02-11 00:59:00,
2013-02-10 19:04:00,63.5,36.1,29.93,NE,38,0.0,1.0,36,0.00,,SKC,0.02,VWS V14.01,2013-02-11 01:04:00,
2013-02-10 19:09:00,63.4,36.0,29.93,NE,38,0.0,1.0,36,0.00,,SKC,0.02,VWS V14.01,2013-02-11 01:09:00,
2013-02-10 19:14:00,63.2,35.8,29.92,NE,38,0.0,2.0,36,0.00,,SKC,0.02,VWS V14.01,2013-02-11 01:14:00,
2013-02-10 19:19:00,63.0,35.7,29.93,NE,38,0.0,2.0,36,0.00,,SKC,0.02,VWS V14.01,2013-02-11 01:19:00,
2013-02-10 19:24:00,62.9,35.6,29.93,NE,38,0.0,3.0,36,0.00,,SKC,0.02,VWS V14.01,2013-02-11 01:24:00,
2013-02-10 19:29:00,62.7,35.4,29.94,NE,37,1.0,4.0,36,0.00,,SKC,0.02,VWS V14.01,2013-02-11 01:29:00,
2013-02-10 19:34:00,62.6,35.3,29.94,NE,36,1.0,4.0,36,0.00,,SKC,0.02,VWS V14.01,2013-02-11 01:34:00,
2013-02-10 19:39:00,62.6,35.3,29.94,NE,36,0.0,4.0,36,0.00,,SKC,0.02,VWS V14.01,2013-02-11 01:39:00,
2013-02-10 19:44:00,62.6,34.6,29.94,NE,36,0.0,4.0,35,0.00,,SKC,0.02,VWS V14.01,2013-02-11 01:44:00,
2013-02-10 19:49:00,62.7,34.7,29.93,NNE,31,3.0,5.0,35,0.00,,SKC,0.02,VWS V14.01,2013-02-11 01:49:00,
2013-02-10 19:54:00,62.7,34.7,29.93,NNE,31,0.0,5.0,35,0.00,,SKC,0.02,VWS V14.01,2013-02-11 01:54:00,
2013-02-10 19:59:00,62.6,35.3,29.93,NNE,31,0.0,5.0,36,0.00,,SKC,0.02,VWS V14.01,2013-02-11 01:59:00,
2013-02-10 20:04:00,62.6,34.6,29.93,NNE,31,0.0,3.0,35,0.00,,SKC,0.02,VWS V14.01,2013-02-11 02:04:00,
2013-02-10 20:09:00,62.6,34.6,29.93,NE,37,0.0,7.0,35,0.00,,SKC,0.02,VWS V14.01,2013-02-11 02:09:00,
2013-02-10 20:14:00,62.6,34.6,29.94,NE,39,2.0,7.0,35,0.00,,SKC,0.02,VWS V14.01,2013-02-11 02:14:00,
2013-02-10 20:19:00,62.6,34.6,29.93,NE,36,3.0,7.0,35,0.00,,SKC,0.02,VWS V14.01,2013-02-11 02:19:00,
2013-02-10 20:24:00,62.6,34.6,29.93,NE,36,3.0,7.0,35,0.00,,SKC,0.02,VWS V14.01,2013-02-11 02:24:00,
2013-02-10 20:29:00,62.5,34.5,29.94,NE,36,0.0,7.0,35,0.00,,SKC,0.02,VWS V14.01,2013-02-11 02:29:00,
2013-02-10 20:34:00,62.5,35.2,29.95,NE,41,1.0,5.0,36,0.00,,SKC,0.02,VWS V14.01,2013-02-11 02:34:00,
2013-02-10 20:39:00,62.3,35.0,29.93,NE,43,2.0,7.0,36,0.00,,SKC,0.02,VWS V14.01,2013-02-11 02:39:00,
2013-02-10 20:44:00,62.1,35.5,29.94,NE,49,2.0,7.0,37,0.00,,SKC,0.02,VWS V14.01,2013-02-11 02:44:00,
2013-02-10 20:49:00,62.0,36.1,29.95,NE,47,0.0,7.0,38,0.00,,SKC,0.02,VWS V14.01,2013-02-11 02:49:00,
2013-02-10 20:54:00,61.9,36.0,29.97,NE,47,0.0,7.0,38,0.00,,SKC,0.02,VWS V14.01,2013-02-11 02:54:00,
2013-02-10 20:59:00,61.8,36.0,29.98,NE,47,1.0,7.0,38,0.00,,SKC,0.02,VWS V14.01,2013-02-11 02:59:00,
2013-02-10 21:04:00,61.7,36.5,29.98,NE,47,0.0,0.0,39,0.00,,SKC,0.02,VWS V14.01,2013-02-11 03:04:00,
2013-02-10 21:09:00,61.7,36.5,29.99,NE,47,0.0,0.0,39,0.00,,SKC,0.02,VWS V14.01,2013-02-11 03:09:00,
2013-02-10 21:14:00,61.6,37.1,29.99,NE,47,0.0,0.0,40,0.00,,SKC,0.02,VWS V14.01,2013-02-11 03:14:00,
2013-02-10 21:19:00,61.6,37.1,29.99,NE,47,0.0,0.0,40,0.00,,SKC,0.02,VWS V14.01,2013-02-11 03:19:00,
2013-02-10 21:24:00,61.5,36.3,30.00,NE,47,0.0,1.0,39,0.00,,SKC,0.02,VWS V14.01,2013-02-11 03:24:00,
2013-02-10 21:29:00,61.5,37.0,30.00,NE,47,0.0,1.0,40,0.00,,SKC,0.02,VWS V14.01,2013-02-11 03:29:00,
2013-02-10 21:34:00,61.4,36.2,30.00,NE,47,0.0,0.0,39,0.00,,SKC,0.02,VWS V14.01,2013-02-11 03:34:00,
2013-02-10 21:39:00,61.4,36.9,30.01,NE,47,0.0,0.0,40,0.00,,SKC,0.02,VWS V14.01,2013-02-11 03:39:00,
2013-02-10 21:44:00,61.3,37.4,30.01,NE,47,0.0,1.0,41,0.00,,SKC,0.02,VWS V14.01,2013-02-11 03:44:00,
2013-02-10 21:49:00,61.3,37.4,30.01,NE,47,1.0,2.0,41,0.00,,SKC,0.02,VWS V14.01,2013-02-11 03:49:00,
2013-02-10 21:54:00,61.3,37.4,30.01,NE,47,0.0,2.0,41,0.00,,SKC,0.02,VWS V14.01,2013-02-11 03:54:00,
2013-02-10 21:59:00,61.2,37.3,30.00,NE,47,0.0,2.0,41,0.00,,SKC,0.02,VWS V14.01,2013-02-11 03:59:00,
2013-02-10 22:04:00,61.2,37.3,30.00,NE,46,2.0,3.0,41,0.00,,SKC,0.02,VWS V14.01,2013-02-11 04:04:00,
2013-02-10 22:09:00,61.1,37.2,30.00,NE,46,0.0,4.0,41,0.00,,SKC,0.02,VWS V14.01,2013-02-11 04:09:00,
2013-02-10 22:14:00,61.1,37.2,30.00,NE,46,0.0,4.0,41,0.00,,SKC,0.02,VWS V14.01,2013-02-11 04:14:00,
2013-02-10 22:19:00,61.0,37.2,30.00,NE,46,0.0,4.0,41,0.00,,SKC,0.02,VWS V14.01,2013-02-11 04:19:00,
2013-02-10 22:24:00,61.0,37.8,30.00,NE,46,1.0,4.0,42,0.00,,SKC,0.02,VWS V14.01,2013-02-11 04:24:00,
2013-02-10 22:29:00,61.0,37.8,30.00,NE,46,2.0,4.0,42,0.00,,SKC,0.02,VWS V14.01,2013-02-11 04:29:00,
2013-02-10 22:34:00,60.9,37.7,30.01,NE,46,2.0,2.0,42,0.00,,SKC,0.02,VWS V14.01,2013-02-11 04:34:00,
2013-02-10 22:39:00,60.8,37.6,30.01,NE,46,0.0,3.0,42,0.00,,SKC,0.02,VWS V14.01,2013-02-11 04:39:00,
2013-02-10 22:44:00,60.7,37.5,30.01,NE,46,0.0,3.0,42,0.00,,SKC,0.02,VWS V14.01,2013-02-11 04:44:00,
2013-02-10 22:49:00,60.7,38.1,30.01,NE,46,0.0,3.0,43,0.00,,SKC,0.02,VWS V14.01,2013-02-11 04:49:00,
2013-02-10 22:54:00,60.6,38.0,30.00,NE,46,3.0,3.0,43,0.00,,SKC,0.02,VWS V14.01,2013-02-11 04:54:00,
2013-02-10 22:59:00,60.5,37.9,30.01,NE,46,0.0,3.0,43,0.00,,SKC,0.02,VWS V14.01,2013-02-11 04:59:00,
2013-02-10 23:00:00,60.5,37.9,30.01,NE,46,0.0,3.0,43,0.00,,SKC,0.02,VWS V14.01,2013-02-11 05:00:00,
2013-02-10 23:05:00,60.5,37.9,30.01,NE,46,0.0,1.0,43,0.00,,SKC,0.02,VWS V14.01,2013-02-11 05:05:00,
2013-02-10 23:10:00,60.4,37.8,30.01,NE,46,0.0,1.0,43,0.00,,SKC,0.02,VWS V14.01,2013-02-11 05:10:00,
2013-02-10 23:15:00,60.4,38.4,30.00,NE,46,0.0,3.0,44,0.00,,SKC,0.02,VWS V14.01,2013-02-11 05:15:00,
2013-02-10 23:20:00,60.3,38.9,30.00,NE,46,0.0,3.0,45,0.00,,SKC,0.02,VWS V14.01,2013-02-11 05:20:00,
2013-02-10 23:25:00,60.2,38.8,30.01,NE,46,0.0,3.0,45,0.00,,SKC,0.02,VWS V14.01,2013-02-11 05:25:00,
2013-02-10 23:30:00,60.1,38.7,30.03,NE,46,0.0,3.0,45,0.00,,SKC,0.02,VWS V14.01,2013-02-11 05:30:00,
2013-02-10 23:35:00,60.0,39.2,30.04,NE,46,0.0,1.0,46,0.00,,SKC,0.02,VWS V14.01,2013-02-11 05:35:00,
2013-02-10 23:40:00,60.0,39.2,30.03,NE,46,0.0,1.0,46,0.00,,SKC,0.02,VWS V14.01,2013-02-11 05:40:00,
2013-02-10 23:45:00,59.9,40.2,30.04,NE,46,0.0,1.0,48,0.00,,SKC,0.02,VWS V14.01,2013-02-11 05:45:00,
2013-02-10 23:50:00,59.9,40.2,30.04,NE,46,0.0,1.0,48,0.00,,SKC,0.02,VWS V14.01,2013-02-11 05:50:00,
2013-02-10 23:55:00,59.8,40.6,30.04,NE,46,0.0,1.0,49,0.00,,SKC,0.02,VWS V14.01,2013-02-11 05:55:00,